Time,TemperatureF,DewpointF,PressureIn,WindDirection,WindDirectionDegrees,WindSpeedMPH,WindSpeedGustMPH,Humidity,HourlyPrecipIn,Conditions,Clouds,dailyrainin,SoftwareType,DateUTC
2013-03-19 00:00:00,49.3,36.0,30.06,WSW,256,0.0,0.0,59,0.00,,,-99.99,wx200d/1.3,2013-03-19 07:00:00,
2013-03-19 00:15:00,48.9,34.0,30.06,WSW,256,0.0,0.0,59,0.00,,,-99.99,wx200d/1.3,2013-03-19 07:15:00,
2013-03-19 00:30:00,48.9,34.0,30.06,WSW,256,0.0,0.0,59,0.00,,,-99.99,wx200d/1.3,2013-03-19 07:30:00,
2013-03-19 00:45:00,48.9,36.0,30.06,WSW,256,0.0,0.0,60,0.00,,,-99.99,wx200d/1.3,2013-03-19 07:45:00,
2013-03-19 01:00:00,49.1,37.0,30.06,WSW,256,0.0,0.0,60,0.00,,,-99.99,wx200d/1.3,2013-03-19 08:00:00,
2013-03-19 01:15:00,49.5,37.0,30.06,WSW,256,0.0,0.0,61,0.00,,,-99.99,wx200d/1.3,2013-03-19 08:15:00,
2013-03-19 01:30:00,50.0,37.0,30.06,WSW,256,0.0,0.0,61,0.00,,,-99.99,wx200d/1.3,2013-03-19 08:30:00,
2013-03-19 01:45:00,50.4,37.0,30.06,WSW,256,0.0,0.0,61,0.00,,,-99.99,wx200d/1.3,2013-03-19 08:45:00,
2013-03-19 02:00:00,50.5,37.0,30.06,WSW,256,0.0,0.0,60,0.00,,,-99.99,wx200d/1.3,2013-03-19 09:00:00,
2013-03-19 02:15:00,50.5,37.0,30.06,WSW,256,0.0,0.0,60,0.00,,,-99.99,wx200d/1.3,2013-03-19 09:15:00,
2013-03-19 02:30:00,50.7,36.0,30.06,WSW,256,0.0,0.0,59,0.00,,,-99.99,wx200d/1.3,2013-03-19 09:30:00,
2013-03-19 02:45:00,50.9,37.0,30.06,WSW,256,0.0,0.0,58,0.00,,,-99.99,wx200d/1.3,2013-03-19 09:45:00,
2013-03-19 03:00:00,50.9,37.0,30.06,WSW,256,0.0,0.0,57,0.00,,,-99.99,wx200d/1.3,2013-03-19 10:00:00,
2013-03-19 03:15:00,51.1,37.0,30.03,WSW,256,0.0,0.0,56,0.00,,,-99.99,wx200d/1.3,2013-03-19 10:15:00,
2013-03-19 03:30:00,51.3,36.0,30.03,WSW,256,0.0,0.0,55,0.00,,,-99.99,wx200d/1.3,2013-03-19 10:30:00,
2013-03-19 03:45:00,51.3,36.0,30.03,WSW,256,0.0,0.0,54,0.00,,,-99.99,wx200d/1.3,2013-03-19 10:45:00,
2013-03-19 04:00:00,51.3,36.0,30.03,WSW,256,0.0,0.0,53,0.00,,,-99.99,wx200d/1.3,2013-03-19 11:00:00,
2013-03-19 04:15:00,51.1,36.0,30.03,WSW,256,0.0,0.0,52,0.00,,,-99.99,wx200d/1.3,2013-03-19 11:15:00,
2013-03-19 04:30:00,50.5,32.0,30.03,WSW,256,0.0,0.0,51,0.00,,,-99.99,wx200d/1.3,2013-03-19 11:30:00,
2013-03-19 04:45:00,50.2,32.0,30.03,WSW,256,0.0,0.0,51,0.00,,,-99.99,wx200d/1.3,2013-03-19 11:45:00,
2013-03-19 05:00:00,49.5,32.0,30.03,WSW,256,0.0,0.0,51,0.00,,,-99.99,wx200d/1.3,2013-03-19 12:00:00,
2013-03-19 05:15:00,49.1,34.0,30.03,WSW,256,0.0,0.0,52,0.00,,,-99.99,wx200d/1.3,2013-03-19 12:15:00,
2013-03-19 05:30:00,48.9,32.0,30.03,WSW,257,0.0,0.0,53,0.00,,,-99.99,wx200d/1.3,2013-03-19 12:30:00,
2013-03-19 05:45:00,48.7,32.0,30.03,WSW,257,0.0,0.0,55,0.00,,,-99.99,wx200d/1.3,2013-03-19 12:45:00,
2013-03-19 06:00:00,48.7,32.0,30.03,WSW,257,0.0,0.0,55,0.00,,,-99.99,wx200d/1.3,2013-03-19 13:00:00,
2013-03-19 06:15:00,48.6,34.0,30.03,WSW,257,0.0,0.0,56,0.00,,,-99.99,wx200d/1.3,2013-03-19 13:15:00,
2013-03-19 06:30:00,48.6,34.0,30.03,WSW,256,0.0,0.0,57,0.00,,,-99.99,wx200d/1.3,2013-03-19 13:30:00,
2013-03-19 06:45:00,48.4,34.0,30.03,WSW,257,0.0,0.0,58,0.00,,,-99.99,wx200d/1.3,2013-03-19 13:45:00,
2013-03-19 07:00:00,48.7,34.0,30.06,WSW,257,0.0,0.0,59,0.00,,,-99.99,wx200d/1.3,2013-03-19 14:00:00,
2013-03-19 07:15:00,48.9,34.0,30.06,WSW,257,0.0,0.0,59,0.00,,,-99.99,wx200d/1.3,2013-03-19 14:15:00,
2013-03-19 07:30:00,49.5,37.0,30.06,WSW,257,0.0,0.0,61,0.00,,,-99.99,wx200d/1.3,2013-03-19 14:30:00,
2013-03-19 07:45:00,50.2,37.0,30.06,WSW,257,0.0,0.0,61,0.00,,,-99.99,wx200d/1.3,2013-03-19 14:45:00,
2013-03-19 08:00:00,51.3,39.0,30.06,WSW,257,0.0,0.0,61,0.00,,,-99.99,wx200d/1.3,2013-03-19 15:00:00,
2013-03-19 08:15:00,52.9,41.0,30.06,WSW,257,0.0,0.0,61,0.00,,,-99.99,wx200d/1.3,2013-03-19 15:15:00,
2013-03-19 08:30:00,54.5,41.0,30.06,WSW,257,0.0,0.0,59,0.00,,,-99.99,wx200d/1.3,2013-03-19 15:30:00,
2013-03-19 08:45:00,56.1,37.0,30.06,WSW,257,0.0,0.0,52,0.00,,,-99.99,wx200d/1.3,2013-03-19 15:45:00,
2013-03-19 09:00:00,57.7,37.0,30.06,WSW,257,0.0,0.0,48,0.00,,,-99.99,wx200d/1.3,2013-03-19 16:00:00,
2013-03-19 09:15:00,58.6,37.0,30.06,WSW,257,0.0,0.0,43,0.00,,,-99.99,wx200d/1.3,2013-03-19 16:15:00,
2013-03-19 09:30:00,59.7,34.0,30.09,WSW,257,0.0,0.0,38,0.00,,,-99.99,wx200d/1.3,2013-03-19 16:30:00,
2013-03-19 09:45:00,60.8,34.0,30.06,West,265,0.0,0.0,35,0.00,,,-99.99,wx200d/1.3,2013-03-19 16:45:00,
2013-03-19 10:00:00,61.7,34.0,30.09,West,274,0.0,0.0,34,0.00,,,-99.99,wx200d/1.3,2013-03-19 17:00:00,
2013-03-19 10:15:00,63.0,32.0,30.09,West,274,0.0,0.0,28,0.00,,,-99.99,wx200d/1.3,2013-03-19 17:15:00,
2013-03-19 10:30:00,63.5,32.0,30.09,West,274,0.0,0.0,25,0.00,,,-99.99,wx200d/1.3,2013-03-19 17:30:00,
2013-03-19 10:45:00,64.6,32.0,30.09,West,274,0.0,0.0,23,0.00,,,-99.99,wx200d/1.3,2013-03-19 17:45:00,
2013-03-19 11:00:00,66.0,32.0,30.09,West,274,0.0,0.0,24,0.00,,,-99.99,wx200d/1.3,2013-03-19 18:00:00,
2013-03-19 11:15:00,65.7,32.0,30.09,East,99,0.0,0.0,24,0.00,,,-99.99,wx200d/1.3,2013-03-19 18:15:00,
2013-03-19 11:30:00,66.7,32.0,30.09,SE,129,0.0,0.0,23,0.00,,,-99.99,wx200d/1.3,2013-03-19 18:30:00,
2013-03-19 11:45:00,68.5,32.0,30.09,East,85,0.0,0.0,22,0.00,,,-99.99,wx200d/1.3,2013-03-19 18:45:00,
2013-03-19 12:00:00,69.6,32.0,30.09,ENE,78,0.0,3.1,20,0.00,,,-99.99,wx200d/1.3,2013-03-19 19:00:00,
2013-03-19 12:15:00,70.0,32.0,30.09,West,263,0.0,0.0,17,0.00,,,-99.99,wx200d/1.3,2013-03-19 19:15:00,
2013-03-19 12:30:00,71.1,32.0,30.09,West,259,0.0,3.6,17,0.00,,,-99.99,wx200d/1.3,2013-03-19 19:30:00,
2013-03-19 12:45:00,70.7,32.0,30.06,West,270,0.0,0.0,17,0.00,,,-99.99,wx200d/1.3,2013-03-19 19:45:00,
2013-03-19 13:00:00,70.0,32.0,30.06,WNW,284,0.0,2.2,17,0.00,,,-99.99,wx200d/1.3,2013-03-19 20:00:00,
2013-03-19 13:15:00,68.4,32.0,30.09,SW,231,0.0,2.7,17,0.00,,,-99.99,wx200d/1.3,2013-03-19 20:15:00,
2013-03-19 13:30:00,66.7,32.0,30.09,West,267,0.0,0.0,17,0.00,,,-99.99,wx200d/1.3,2013-03-19 20:30:00,
2013-03-19 13:45:00,66.2,32.0,30.09,West,273,0.0,0.0,17,0.00,,,-99.99,wx200d/1.3,2013-03-19 20:45:00,
2013-03-19 14:00:00,66.2,32.0,30.09,WNW,297,0.0,0.0,17,0.00,,,-99.99,wx200d/1.3,2013-03-19 21:00:00,
2013-03-19 14:15:00,66.9,32.0,30.09,West,271,0.0,0.0,17,0.00,,,-99.99,wx200d/1.3,2013-03-19 21:15:00,
2013-03-19 14:30:00,67.5,32.0,30.09,WNW,282,0.0,0.0,17,0.00,,,-99.99,wx200d/1.3,2013-03-19 21:30:00,
2013-03-19 14:45:00,66.0,32.0,30.06,ENE,57,0.0,0.0,18,0.00,,,-99.99,wx200d/1.3,2013-03-19 21:45:00,
2013-03-19 15:00:00,65.8,32.0,30.06,West,275,0.0,2.2,18,0.00,,,-99.99,wx200d/1.3,2013-03-19 22:00:00,
2013-03-19 15:15:00,64.8,32.0,30.06,NW,313,0.0,0.0,15,0.00,,,-99.99,wx200d/1.3,2013-03-19 22:15:00,
2013-03-19 15:30:00,63.9,32.0,30.06,East,100,2.2,2.7,16,0.00,,,-99.99,wx200d/1.3,2013-03-19 22:30:00,
2013-03-19 15:45:00,63.9,32.0,30.06,West,265,0.0,0.0,16,0.00,,,-99.99,wx200d/1.3,2013-03-19 22:45:00,
2013-03-19 16:00:00,62.8,32.0,30.06,NW,305,0.0,0.0,16,0.00,,,-99.99,wx200d/1.3,2013-03-19 23:00:00,
2013-03-19 16:15:00,62.4,32.0,30.06,WNW,292,2.7,0.0,16,0.00,,,-99.99,wx200d/1.3,2013-03-19 23:15:00,
2013-03-19 16:30:00,61.9,32.0,30.09,WSW,249,0.0,0.0,19,0.00,,,-99.99,wx200d/1.3,2013-03-19 23:30:00,
2013-03-19 16:45:00,60.8,32.0,30.09,West,272,0.0,3.6,19,0.00,,,-99.99,wx200d/1.3,2013-03-19 23:45:00,
2013-03-19 17:00:00,59.2,32.0,30.09,ENE,68,0.0,0.0,24,0.00,,,-99.99,wx200d/1.3,2013-03-20 00:00:00,
2013-03-19 17:15:00,57.7,32.0,30.09,ENE,71,0.0,0.0,25,0.00,,,-99.99,wx200d/1.3,2013-03-20 00:15:00,
2013-03-19 17:30:00,57.9,32.0,30.09,West,276,2.7,5.4,22,0.00,,,-99.99,wx200d/1.3,2013-03-20 00:30:00,
2013-03-19 17:45:00,57.2,32.0,30.09,East,79,0.0,0.0,24,0.00,,,-99.99,wx200d/1.3,2013-03-20 00:45:00,
2013-03-19 18:00:00,56.7,32.0,30.09,West,275,0.0,0.0,26,0.00,,,-99.99,wx200d/1.3,2013-03-20 01:00:00,
2013-03-19 18:15:00,56.3,32.0,30.09,West,276,0.0,0.0,27,0.00,,,-99.99,wx200d/1.3,2013-03-20 01:15:00,
2013-03-19 18:30:00,55.6,32.0,30.12,WSW,257,0.0,0.0,35,0.00,,,-99.99,wx200d/1.3,2013-03-20 01:30:00,
2013-03-19 18:45:00,54.3,32.0,30.12,West,277,0.0,0.0,43,0.00,,,-99.99,wx200d/1.3,2013-03-20 01:45:00,
2013-03-19 19:00:00,53.1,32.0,30.09,West,272,0.0,0.0,40,0.00,,,-99.99,wx200d/1.3,2013-03-20 02:00:00,
2013-03-19 19:15:00,52.7,32.0,30.09,West,272,0.0,0.0,39,0.00,,,-99.99,wx200d/1.3,2013-03-20 02:15:00,
2013-03-19 19:30:00,52.5,32.0,30.09,West,272,0.0,0.0,40,0.00,,,-99.99,wx200d/1.3,2013-03-20 02:30:00,
2013-03-19 19:45:00,52.0,32.0,30.09,West,272,0.0,0.0,43,0.00,,,-99.99,wx200d/1.3,2013-03-20 02:45:00,
2013-03-19 20:00:00,52.0,32.0,30.09,West,272,0.0,0.0,45,0.00,,,-99.99,wx200d/1.3,2013-03-20 03:00:00,
2013-03-19 20:15:00,52.0,34.0,30.09,West,272,0.0,0.0,49,0.00,,,-99.99,wx200d/1.3,2013-03-20 03:15:00,
2013-03-19 20:30:00,51.8,34.0,30.09,West,272,0.0,0.0,49,0.00,,,-99.99,wx200d/1.3,2013-03-20 03:30:00,
2013-03-19 20:45:00,51.6,34.0,30.09,West,272,0.0,0.0,50,0.00,,,-99.99,wx200d/1.3,2013-03-20 03:45:00,
2013-03-19 21:15:00,51.6,36.0,30.06,West,272,0.0,0.0,52,0.00,,,-99.99,wx200d/1.3,2013-03-20 04:15:00,
2013-03-19 21:30:00,51.4,36.0,30.06,West,272,0.0,0.0,52,0.00,,,-99.99,wx200d/1.3,2013-03-20 04:30:00,
2013-03-19 21:45:00,51.6,34.0,30.06,West,272,0.0,0.0,50,0.00,,,-99.99,wx200d/1.3,2013-03-20 04:45:00,
2013-03-19 22:00:00,51.4,34.0,30.06,West,272,0.0,0.0,49,0.00,,,-99.99,wx200d/1.3,2013-03-20 05:00:00,
2013-03-19 22:15:00,51.3,34.0,30.06,West,272,0.0,0.0,49,0.00,,,-99.99,wx200d/1.3,2013-03-20 05:15:00,
2013-03-19 22:30:00,51.1,32.0,30.06,West,272,0.0,0.0,48,0.00,,,-99.99,wx200d/1.3,2013-03-20 05:30:00,
2013-03-19 22:45:00,50.7,32.0,30.06,West,272,0.0,0.0,48,0.00,,,-99.99,wx200d/1.3,2013-03-20 05:45:00,
2013-03-19 23:00:00,50.9,34.0,30.06,West,272,0.0,0.0,49,0.00,,,-99.99,wx200d/1.3,2013-03-20 06:00:00,
2013-03-19 23:15:00,50.9,34.0,30.06,West,272,0.0,0.0,50,0.00,,,-99.99,wx200d/1.3,2013-03-20 06:15:00,
2013-03-19 23:30:00,51.1,34.0,30.06,West,272,0.0,0.0,50,0.00,,,-99.99,wx200d/1.3,2013-03-20 06:30:00,
2013-03-19 23:45:00,51.4,34.0,30.06,West,272,0.0,0.0,50,0.00,,,-99.99,wx200d/1.3,2013-03-20 06:45:00,